| time (UTC) | temp C | wind direction | speed KPH | gust KPH | rain 1hr cm | rain 24hr cm | rain mn cm | humidity % | barometer mb |
| 20260504001030 | 15 | 255 | 14.5 | 25.7 | 0.00 | 0.00 | 0.00 | 54 | 1010.5 |
| 20260504000523 | 14 | 223 | 14.5 | 27.4 | 0.00 | 0.00 | 0.00 | 55 | 1010.5 |
| 20260504000017 | 14 | 230 | 16.1 | 27.4 | 0.00 | 0.00 | 0.00 | 56 | 1010.7 |
| 20260503235512 | 14 | 209 | 16.1 | 29.0 | 0.00 | 0.00 | 0.00 | 58 | 1011.0 |
| 20260503235227 | 14 | 239 | 14.5 | 29.0 | 0.00 | 0.00 | 0.00 | 57 | 1011.0 |
| 20260503234500 | 14 | 221 | 16.1 | 27.4 | 0.00 | 0.00 | 0.00 | 54 | 1010.9 |
| 20260503234210 | 14 | 238 | 17.7 | 27.4 | 0.00 | 0.00 | 0.00 | 54 | 1011.3 |
| 20260503233448 | 14 | 254 | 17.7 | 29.0 | 0.00 | 0.00 | 0.00 | 55 | 1011.4 |
| 20260503232942 | 14 | 229 | 17.7 | 35.4 | 0.00 | 0.00 | 0.00 | 56 | 1011.0 |
| 20260503232436 | 14 | 224 | 17.7 | 35.4 | 0.00 | 0.00 | 0.00 | 56 | 1010.6 |
| 20260503231930 | 14 | 227 | 14.5 | 29.0 | 0.00 | 0.00 | 0.00 | 55 | 1010.7 |
| 20260503231424 | 14 | 224 | 9.7 | 20.9 | 0.00 | 0.00 | 0.00 | 56 | 1011.2 |
| 20260503230918 | 15 | 231 | 12.9 | 20.9 | 0.00 | 0.00 | 0.00 | 55 | 1011.2 |
| 20260503230634 | 15 | 237 | 14.5 | 20.9 | 0.00 | 0.00 | 0.00 | 54 | 1011.4 |
| 20260503225905 | 15 | 236 | 12.9 | 20.9 | 0.00 | 0.00 | 0.00 | 52 | 1011.3 |
| 20260503225359 | 15 | 221 | 12.9 | 25.7 | 0.00 | 0.00 | 0.00 | 53 | 1011.4 |
| 20260503224849 | 15 | 225 | 14.5 | 25.7 | 0.00 | 0.00 | 0.00 | 50 | 1011.4 |
| 20260503224347 | 15 | 205 | 12.9 | 25.7 | 0.00 | 0.00 | 0.00 | 50 | 1011.5 |
| 20260503223841 | 15 | 225 | 12.9 | 25.7 | 0.00 | 0.00 | 0.00 | 48 | 1011.5 |
| 20260503223335 | 15 | 217 | 16.1 | 27.4 | 0.00 | 0.00 | 0.00 | 48 | 1011.3 |
| 20260503222829 | 15 | 223 | 16.1 | 35.4 | 0.00 | 0.00 | 0.00 | 48 | 1011.3 |
| 20260503222320 | 16 | 243 | 16.1 | 35.4 | 0.00 | 0.00 | 0.00 | 47 | 1011.4 |
| 20260503221817 | 16 | 238 | 20.9 | 35.4 | 0.00 | 0.00 | 0.00 | 46 | 1011.7 |
| 20260503221311 | 16 | 214 | 25.7 | 43.5 | 0.00 | 0.00 | 0.00 | 44 | 1011.8 |
| 20260503220806 | 16 | 246 | 25.7 | 43.5 | 0.00 | 0.00 | 0.00 | 44 | 1012.0 |
| 20260503220301 | 16 | 238 | 22.5 | 35.4 | 0.00 | 0.00 | 0.00 | 43 | 1012.0 |
| 20260503215755 | 16 | 224 | 20.9 | 35.4 | 0.00 | 0.00 | 0.00 | 43 | 1011.8 |
| 20260503215510 | 16 | 205 | 20.9 | 35.4 | 0.00 | 0.00 | 0.00 | 43 | 1011.7 |
| 20260503214738 | 16 | 238 | 22.5 | 35.4 | 0.00 | 0.00 | 0.00 | 42 | 1011.7 |
| 20260503214236 | 16 | 240 | 24.1 | 35.4 | 0.00 | 0.00 | 0.00 | 41 | 1011.8 |
| 20260503213730 | 16 | 236 | 24.1 | 38.6 | 0.00 | 0.00 | 0.00 | 41 | 1012.0 |
| 20260503213223 | 16 | 231 | 20.9 | 38.6 | 0.00 | 0.00 | 0.00 | 40 | 1012.2 |
| 20260503212719 | 16 | 240 | 20.9 | 33.8 | 0.00 | 0.00 | 0.00 | 40 | 1012.2 |
| 20260503212207 | 16 | 236 | 20.9 | 35.4 | 0.00 | 0.00 | 0.00 | 42 | 1012.5 |
| 20260503211925 | 16 | 219 | 24.1 | 41.8 | 0.00 | 0.00 | 0.00 | 41 | 1012.7 |
| 20260503211201 | 16 | 250 | 24.1 | 41.8 | 0.00 | 0.00 | 0.00 | 40 | 1013.1 |
| 20260503210655 | 16 | 226 | 20.9 | 41.8 | 0.00 | 0.00 | 0.00 | 40 | 1013.0 |
| 20260503210149 | 16 | 236 | 22.5 | 41.8 | 0.00 | 0.00 | 0.00 | 39 | 1013.2 |
| 20260503205643 | 16 | 240 | 24.1 | 41.8 | 0.00 | 0.00 | 0.00 | 39 | 1013.3 |
| 20260503205136 | 16 | 254 | 20.9 | 35.4 | 0.00 | 0.00 | 0.00 | 39 | 1013.3 |
| 20260503204624 | 16 | 197 | 20.9 | 33.8 | 0.00 | 0.00 | 0.00 | 39 | 1013.4 |
| 20260503204123 | 16 | 232 | 17.7 | 33.8 | 0.00 | 0.00 | 0.00 | 39 | 1013.4 |
| 20260503203617 | 17 | 239 | 19.3 | 38.6 | 0.00 | 0.00 | 0.00 | 39 | 1013.7 |
| 20260503203111 | 17 | 246 | 22.5 | 38.6 | 0.00 | 0.00 | 0.00 | 37 | 1013.6 |
| 20260503202606 | 17 | 245 | 20.9 | 40.2 | 0.00 | 0.00 | 0.00 | 38 | 1013.8 |
| 20260503202056 | 17 | 261 | 20.9 | 40.2 | 0.00 | 0.00 | 0.00 | 35 | 1013.6 |
| 20260503201817 | 17 | 205 | 25.7 | 43.5 | 0.00 | 0.00 | 0.00 | 39 | 1013.6 |
| 20260503201049 | 16 | 243 | 25.7 | 43.5 | 0.00 | 0.00 | 0.00 | 39 | 1013.9 |
| 20260503200541 | 17 | 240 | 24.1 | 41.8 | 0.00 | 0.00 | 0.00 | 37 | 1014.0 |
| 20260503200035 | 16 | 220 | 22.5 | 35.4 | 0.00 | 0.00 | 0.00 | 37 | 1013.9 |
| 20260503195757 | 17 | 220 | 22.5 | 33.8 | 0.00 | 0.00 | 0.00 | 38 | 1014.2 |
| 20260503195246 | 17 | 224 | 20.9 | 35.4 | 0.00 | 0.00 | 0.00 | 38 | 1014.4 |
| 20260503194513 | 17 | 222 | 20.9 | 33.8 | 0.00 | 0.00 | 0.00 | 35 | 1014.3 |
| 20260503194011 | 17 | 267 | 20.9 | 38.6 | 0.00 | 0.00 | 0.00 | 36 | 1014.3 |
| 20260503193505 | 17 | 261 | 19.3 | 38.6 | 0.00 | 0.00 | 0.00 | 36 | 1014.1 |
| 20260503192959 | 17 | 250 | 19.3 | 29.0 | 0.00 | 0.00 | 0.00 | 37 | 1014.2 |
| 20260503192454 | 17 | 223 | 19.3 | 29.0 | 0.00 | 0.00 | 0.00 | 39 | 1014.1 |
| 20260503191944 | 17 | 273 | 19.3 | 32.2 | 0.00 | 0.00 | 0.00 | 37 | 1014.2 |
| 20260503191442 | 16 | 276 | 19.3 | 32.2 | 0.00 | 0.00 | 0.00 | 35 | 1014.5 |
| 20260503191159 | 16 | 244 | 17.7 | 29.0 | 0.00 | 0.00 | 0.00 | 37 | 1014.6 |
| 20260503190429 | 17 | 234 | 16.1 | 27.4 | 0.00 | 0.00 | 0.00 | 37 | 1014.6 |
| 20260503185923 | 17 | 250 | 16.1 | 32.2 | 0.00 | 0.00 | 0.00 | 38 | 1014.6 |
| 20260503185416 | 16 | 261 | 20.9 | 35.4 | 0.00 | 0.00 | 0.00 | 38 | 1014.9 |
| 20260503184911 | 16 | 218 | 22.5 | 35.4 | 0.00 | 0.00 | 0.00 | 38 | 1015.0 |
| 20260503184400 | 15 | 202 | 19.3 | 30.6 | 0.00 | 0.00 | 0.00 | 39 | 1015.2 |
| 20260503183900 | 16 | 250 | 16.1 | 27.4 | 0.00 | 0.00 | 0.00 | 37 | 1015.4 |
| 20260503183354 | 16 | 223 | 16.1 | 27.4 | 0.00 | 0.00 | 0.00 | 38 | 1015.2 |
| 20260503182848 | 16 | 271 | 16.1 | 27.4 | 0.00 | 0.00 | 0.00 | 35 | 1015.4 |
| 20260503182342 | 16 | 300 | 14.5 | 25.7 | 0.00 | 0.00 | 0.00 | 37 | 1015.6 |
| 20260503181832 | 16 | 246 | 14.5 | 33.8 | 0.00 | 0.00 | 0.00 | 36 | 1015.8 |
| 20260503181330 | 16 | 253 | 14.5 | 33.8 | 0.00 | 0.00 | 0.00 | 35 | 1015.8 |
| 20260503180823 | 16 | 261 | 14.5 | 27.4 | 0.00 | 0.00 | 0.00 | 37 | 1015.9 |
| 20260503180317 | 16 | 292 | 12.9 | 24.1 | 0.00 | 0.00 | 0.00 | 35 | 1015.9 |
| 20260503175811 | 16 | 271 | 16.1 | 27.4 | 0.00 | 0.00 | 0.00 | 37 | 1016.0 |
| 20260503175525 | 15 | 233 | 20.9 | 32.2 | 0.00 | 0.00 | 0.00 | 35 | 1016.2 |
| 20260503174759 | 15 | 248 | 19.3 | 32.2 | 0.00 | 0.00 | 0.00 | 33 | 1016.5 |
| 20260503174248 | 15 | 249 | 16.1 | 30.6 | 0.00 | 0.00 | 0.00 | 35 | 1016.3 |
| 20260503173747 | 15 | 261 | 17.7 | 33.8 | 0.00 | 0.00 | 0.00 | 36 | 1016.5 |
| 20260503173241 | 15 | 234 | 17.7 | 33.8 | 0.00 | 0.00 | 0.00 | 35 | 1016.5 |
| 20260503172735 | 15 | 286 | 17.7 | 30.6 | 0.00 | 0.00 | 0.00 | 36 | 1016.5 |
| 20260503172229 | 15 | 252 | 16.1 | 29.0 | 0.00 | 0.00 | 0.00 | 35 | 1016.7 |
| 20260503171719 | 15 | 263 | 16.1 | 29.0 | 0.00 | 0.00 | 0.00 | 37 | 1016.5 |
| 20260503171217 | 15 | 238 | 20.9 | 32.2 | 0.00 | 0.00 | 0.00 | 37 | 1016.7 |
| 20260503170936 | 15 | 222 | 20.9 | 35.4 | 0.00 | 0.00 | 0.00 | 35 | 1016.8 |
| 20260503170206 | 15 | 259 | 19.3 | 30.6 | 0.00 | 0.00 | 0.00 | 35 | 1016.8 |
| 20260503150444 | 13 | 262 | 16.1 | 30.6 | 0.00 | 0.00 | 0.00 | 41 | 1018.5 |
| 20260503131224 | 8 | 232 | 8.0 | 12.9 | 0.00 | 0.00 | 0.00 | 66 | 1019.0 |
| 20260503130722 | 7 | 240 | 8.0 | 12.9 | 0.00 | 0.00 | 0.00 | 66 | 1019.0 |
| 20260503130211 | 7 | 230 | 9.7 | 12.9 | 0.00 | 0.00 | 0.00 | 66 | 1019.0 |
| 20260503110630 | 3 | 194 | 3.2 | 6.4 | 0.00 | 0.00 | 0.00 | 73 | 1018.2 |
| 20260503110118 | 3 | 198 | 4.8 | 9.7 | 0.00 | 0.00 | 0.00 | 72 | 1018.1 |
| 20260503081017 | 5 | 242 | 4.8 | 8.0 | 0.00 | 0.00 | 0.00 | 64 | 1017.7 |
| 20260503080735 | 5 | 244 | 4.8 | 9.7 | 0.00 | 0.00 | 0.00 | 62 | 1017.8 |
| 20260503072501 | 4 | 254 | 6.4 | 8.0 | 0.00 | 0.00 | 0.00 | 69 | 1017.8 |
| 20260503072000 | 5 | 260 | 6.4 | 9.7 | 0.00 | 0.00 | 0.00 | 68 | 1017.8 |
| 20260503071501 | 5 | 252 | 4.8 | 9.7 | 0.00 | 0.00 | 0.00 | 69 | 1017.8 |
| 20260503071001 | 5 | 246 | 4.8 | 6.4 | 0.00 | 0.00 | 0.00 | 69 | 1017.9 |
| 20260503070501 | 5 | 242 | 3.2 | 6.4 | 0.00 | 0.00 | 0.00 | 67 | 1017.8 |
| 20260503054937 | 6 | 244 | 4.8 | 8.0 | 0.00 | 0.00 | 0.00 | 64 | 1018.2 |
| 20260503054645 | 6 | 245 | 6.4 | 6.4 | 0.00 | 0.00 | 0.00 | 61 | 1018.2 |
| 20260503053916 | 6 | 249 | 4.8 | 6.4 | 0.00 | 0.00 | 0.00 | 62 | 1018.3 |
| 20260503053410 | 6 | 248 | 4.8 | 6.4 | 0.00 | 0.00 | 0.00 | 62 | 1018.4 |
| 20260503052900 | 6 | 251 | 4.8 | 6.4 | 0.00 | 0.00 | 0.00 | 59 | 1018.4 |
| 20260503052356 | 6 | 252 | 4.8 | 6.4 | 0.00 | 0.00 | 0.00 | 60 | 1018.4 |
| 20260503052109 | 6 | 253 | 4.8 | 6.4 | 0.00 | 0.00 | 0.00 | 62 | 1018.4 |
| 20260503051602 | 6 | 246 | 4.8 | 6.4 | 0.00 | 0.00 | 0.00 | 63 | 1018.4 |
| 20260503050830 | 5 | 248 | 4.8 | 6.4 | 0.00 | 0.00 | 0.00 | 63 | 1018.4 |
| 20260503050324 | 5 | 260 | 6.4 | 8.0 | 0.00 | 0.00 | 0.00 | 64 | 1018.5 |
| 20260503045812 | 5 | 261 | 6.4 | 8.0 | 0.00 | 0.00 | 0.00 | 64 | 1018.5 |
| 20260503045310 | 5 | 270 | 6.4 | 6.4 | 0.00 | 0.00 | 0.00 | 65 | 1018.5 |
| 20260503045023 | 5 | 260 | 4.8 | 6.4 | 0.00 | 0.00 | 0.00 | 65 | 1018.4 |
| 20260503044524 | 5 | 254 | 4.8 | 6.4 | 0.00 | 0.00 | 0.00 | 66 | 1018.4 |
| 20260503043752 | 5 | 259 | 4.8 | 6.4 | 0.00 | 0.00 | 0.00 | 65 | 1018.4 |
| 20260503043247 | 6 | 262 | 4.8 | 6.4 | 0.00 | 0.00 | 0.00 | 64 | 1018.3 |
| 20260503042742 | 6 | 256 | 4.8 | 4.8 | 0.00 | 0.00 | 0.00 | 61 | 1018.2 |
| 20260503042231 | 6 | 254 | 4.8 | 4.8 | 0.00 | 0.00 | 0.00 | 59 | 1018.2 |
| 20260503041727 | 6 | 259 | 4.8 | 4.8 | 0.00 | 0.00 | 0.00 | 60 | 1018.1 |
| 20260503041226 | 6 | 260 | 4.8 | 4.8 | 0.00 | 0.00 | 0.00 | 59 | 1018.1 |
| 20260503040726 | 6 | 262 | 3.2 | 4.8 | 0.00 | 0.00 | 0.00 | 61 | 1018.1 |
| 20260503040435 | 6 | 254 | 3.2 | 3.2 | 0.00 | 0.00 | 0.00 | 60 | 1018.1 |
| 20260503040318 | 6 | 261 | 3.2 | 4.8 | 0.00 | 0.00 | 0.00 | 60 | 1018.1 |
| 20260503035223 | 7 | 257 | 3.2 | 4.8 | 0.00 | 0.00 | 0.00 | 61 | 1018.2 |
| 20260503034724 | 7 | 254 | 3.2 | 4.8 | 0.00 | 0.00 | 0.00 | 59 | 1018.2 |
| 20260503034224 | 7 | 257 | 1.6 | 3.2 | 0.00 | 0.00 | 0.00 | 58 | 1018.2 |
| 20260503033724 | 7 | 265 | 1.6 | 3.2 | 0.00 | 0.00 | 0.00 | 54 | 1018.2 |
| 20260503033223 | 7 | 265 | 1.6 | 3.2 | 0.00 | 0.00 | 0.00 | 50 | 1018.2 |
| 20260503032942 | 8 | 265 | 1.6 | 3.2 | 0.00 | 0.00 | 0.00 | 48 | 1018.1 |
| 20260503032219 | 8 | 336 | 1.6 | 3.2 | 0.00 | 0.00 | 0.00 | 46 | 1018.2 |
| 20260503031708 | 8 | 347 | 3.2 | 3.2 | 0.00 | 0.00 | 0.00 | 45 | 1018.3 |
| 20260503031208 | 8 | 0 | 3.2 | 3.2 | 0.00 | 0.00 | 0.00 | 45 | 1018.3 |
| 20260503030708 | 8 | 9 | 3.2 | 3.2 | 0.00 | 0.00 | 0.00 | 45 | 1018.3 |
| 20260503030208 | 8 | 11 | 3.2 | 3.2 | 0.00 | 0.00 | 0.00 | 46 | 1018.3 |
| 20260503025708 | 8 | 0 | 3.2 | 3.2 | 0.00 | 0.00 | 0.00 | 46 | 1018.2 |
| 20260503025417 | 8 | 355 | 3.2 | 3.2 | 0.00 | 0.00 | 0.00 | 45 | 1018.2 |
| 20260503025259 | 8 | 0 | 3.2 | 3.2 | 0.00 | 0.00 | 0.00 | 46 | 1018.3 |
| 20260503024208 | 8 | 0 | 3.2 | 3.2 | 0.00 | 0.00 | 0.00 | 46 | 1018.2 |
| 20260503023707 | 8 | 5 | 3.2 | 4.8 | 0.00 | 0.00 | 0.00 | 47 | 1018.1 |
| 20260503023429 | 8 | 355 | 3.2 | 4.8 | 0.00 | 0.00 | 0.00 | 46 | 1018.1 |
| 20260503022651 | 8 | 13 | 3.2 | 4.8 | 0.00 | 0.00 | 0.00 | 47 | 1018.1 |
| 20260503022151 | 8 | 349 | 3.2 | 4.8 | 0.00 | 0.00 | 0.00 | 46 | 1018.0 |
| 20260503021652 | 8 | 0 | 3.2 | 4.8 | 0.00 | 0.00 | 0.00 | 46 | 1018.0 |
| 20260503021151 | 8 | 12 | 3.2 | 4.8 | 0.00 | 0.00 | 0.00 | 46 | 1018.0 |
| 20260503020652 | 8 | 9 | 3.2 | 4.8 | 0.00 | 0.00 | 0.00 | 47 | 1018.0 |
| 20260503020414 | 8 | 0 | 3.2 | 4.8 | 0.00 | 0.00 | 0.00 | 46 | 1017.9 |
| 20260503015652 | 8 | 22 | 3.2 | 4.8 | 0.00 | 0.00 | 0.00 | 47 | 1017.9 |
| 20260503015151 | 8 | 14 | 3.2 | 4.8 | 0.00 | 0.00 | 0.00 | 47 | 1017.8 |
| 20260503014652 | 8 | 19 | 3.2 | 4.8 | 0.00 | 0.00 | 0.00 | 47 | 1017.7 |
| 20260503014147 | 8 | 17 | 3.2 | 4.8 | 0.00 | 0.00 | 0.00 | 47 | 1017.7 |
| 20260503013636 | 8 | 13 | 3.2 | 4.8 | 0.00 | 0.00 | 0.00 | 46 | 1017.6 |
| 20260503013403 | 8 | 36 | 1.6 | 4.8 | 0.00 | 0.00 | 0.00 | 46 | 1017.6 |
| 20260503012635 | 8 | 32 | 1.6 | 3.2 | 0.00 | 0.00 | 0.00 | 46 | 1017.5 |
| 20260503012136 | 8 | 28 | 1.6 | 4.8 | 0.00 | 0.00 | 0.00 | 46 | 1017.5 |
| 20260503011636 | 8 | 36 | 3.2 | 4.8 | 0.00 | 0.00 | 0.00 | 46 | 1017.5 |
| 20260503011136 | 8 | 30 | 3.2 | 6.4 | 0.00 | 0.00 | 0.00 | 46 | 1017.4 |
| 20260503010636 | 8 | 25 | 3.2 | 8.0 | 0.00 | 0.00 | 0.00 | 47 | 1017.4 |
| 20260503010135 | 8 | 24 | 4.8 | 8.0 | 0.00 | 0.00 | 0.00 | 46 | 1017.3 |
| 20260503005859 | 8 | 15 | 3.2 | 8.0 | 0.00 | 0.00 | 0.00 | 45 | 1017.4 |
| 20260503005130 | 9 | 13 | 3.2 | 8.0 | 0.00 | 0.00 | 0.00 | 46 | 1017.3 |
| 20260503004617 | 9 | 0 | 3.2 | 8.0 | 0.00 | 0.00 | 0.00 | 45 | 1017.3 |
| 20260503004326 | 9 | 9 | 3.2 | 4.8 | 0.00 | 0.00 | 0.00 | 45 | 1017.3 |
| 20260503003559 | 9 | 350 | 3.2 | 8.0 | 0.00 | 0.00 | 0.00 | 44 | 1017.3 |
| 20260503003100 | 10 | 355 | 3.2 | 8.0 | 0.00 | 0.00 | 0.00 | 43 | 1017.3 |
| 20260503002825 | 10 | 40 | 4.8 | 8.0 | 0.00 | 0.00 | 0.00 | 42 | 1017.2 |
| 20260503002100 | 10 | 5 | 4.8 | 9.7 | 0.00 | 0.00 | 0.00 | 42 | 1017.2 |
| 20260503001600 | 10 | 11 | 3.2 | 9.7 | 0.00 | 0.00 | 0.00 | 43 | 1017.1 |